Wind_Speed
51 53 54 54 52 50 49 48 47 44 43 42 40 37 34 32 29 26 20 19 25 29 29 28 29 31 34 35 32 30 32 33 33 32 31 30 27 25 27 28 28 29 29 31 31 28 25 26 26 27 30 32 28 23 23 24 25 25 22 19 18 16 15 16 17 18 19 19 20 20 19 19 19 19 20 21 20 20 19 14 13 15 12 9 10 10
53 54 54 52 49 47 45 45 43 41 42 40 39 37 35 33 30 26 22 19 22 27 27 24 23 26 32 34 32 30 32 33 32 31 30 29 26 23 24 26 27 29 30 29 28 26 26 26 26 26 29 31 30 27 26 25 24 24 22 21 20 19 19 19 18 17 18 19 20 20 20 19 20 21 21 23 23 22 20 16 15 17 13 11 11 10
55 55 52 49 47 45 45 43 41 40 39 38 38 38 37 35 31 26 24 22 23 25 25 23 21 23 29 31 31 29 29 31 30 29 29 28 25 23 24 25 25 29 31 28 24 25 27 26 25 26 27 27 27 26 26 25 24 23 21 20 20 20 20 20 19 18 18 19 20 20 19 20 21 22 22 24 25 24 23 19 17 16 13 11 10 10
56 54 51 48 46 46 46 44 42 40 39 39 39 39 37 36 32 26 23 22 23 23 22 21 22 25 29 29 29 28 28 31 30 28 28 26 24 23 24 24 25 28 30 27 24 25 27 28 26 25 24 23 23 24 25 25 24 22 20 19 19 20 19 19 19 19 19 19 21 20 20 21 21 22 23 24 24 24 22 18 16 14 11 11 10 9
54 51 48 47 47 46 45 43 43 43 41 39 39 39 36 34 31 25 18 18 20 21 21 23 25 28 31 30 28 28 29 30 29 27 26 24 24 24 24 25 25 27 29 28 27 27 29 29 26 22 22 22 20 20 22 23 23 22 20 19 20 20 19 18 18 19 19 20 21 22 21 21 21 21 21 21 21 19 17 16 15 13 12 11 10 9
53 50 47 47 46 44 42 42 44 44 41 39 39 38 34 32 29 20 16 16 19 23 25 28 30 31 32 29 25 26 28 29 27 25 25 24 24 24 23 25 26 26 27 28 30 29 31 30 24 20 22 23 21 19 19 21 21 20 18 18 18 18 17 17 18 20 21 22 22 23 22 21 21 20 19 19 18 15 16 18 18 14 12 11 9 8
54 51 47 46 44 42 42 43 44 44 41 40 39 35 31 33 30 23 21 19 20 24 27 31 32 32 31 28 26 26 27 27 25 23 24 24 23 23 22 22 24 25 25 28 31 31 30 28 23 19 21 23 24 23 21 20 19 18 17 17 17 16 15 15 18 21 22 23 23 23 22 21 21 20 18 17 15 15 17 18 16 13 11 9 8 8
54 51 49 47 44 43 43 44 44 43 42 40 37 33 31 33 31 29 26 24 22 22 29 35 36 35 36 34 32 32 26 23 23 23 23 22 23 24 23 24 25 26 27 29 31 32 30 24 19 17 17 21 24 22 20 20 18 17 18 19 18 17 17 18 19 19 20 20 21 22 22 21 20 18 16 15 16 17 16 13 12 11 10 8 8 8
53 53 51 47 45 44 44 43 42 41 41 39 34 33 33 33 30 32 29 25 24 26 32 38 39 38 40 38 35 33 26 22 23 23 22 21 22 25 25 25 26 27 30 32 33 34 32 24 18 15 13 16 19 19 18 19 19 19 19 20 20 19 20 20 19 18 17 17 18 20 20 19 18 15 13 13 15 15 12 10 11 11 9 8 8 8
53 51 49 46 46 45 42 40 40 40 39 35 33 33 34 33 31 35 34 28 26 31 34 35 38 36 37 37 35 32 27 23 21 19 19 20 22 26 26 24 24 26 29 33 35 34 31 25 18 14 12 14 15 17 18 19 20 20 21 21 20 19 19 18 17 16 15 15 16 18 18 17 15 15 13 10 12 13 10 9 11 10 9 9 9 9
51 49 48 47 45 42 39 37 38 38 35 34 36 36 35 34 34 37 37 33 31 35 33 30 34 31 29 30 32 31 26 22 19 17 18 19 21 24 25 25 23 23 24 29 32 28 24 21 16 13 13 14 15 17 18 19 20 20 20 20 19 17 16 15 15 14 14 14 15 16 17 16 16 17 15 12 14 13 10 9 11 11 10 9 9 10
50 48 48 47 44 41 38 37 36 37 36 36 38 37 37 37 37 39 39 37 37 39 34 32 34 29 25 26 28 27 25 23 21 21 20 19 21 23 23 24 24 22 20 22 27 25 22 19 15 13 14 16 17 17 18 19 18 18 18 19 17 15 15 15 15 14 13 13 14 15 16 16 17 18 15 15 16 15 10 12 13 11 10 10 11 12
52 50 48 45 44 43 40 39 38 38 39 39 39 38 39 41 41 42 42 41 41 40 37 36 33 30 27 25 22 19 19 20 22 25 24 21 22 23 21 20 20 19 17 18 23 25 23 20 17 15 16 17 18 19 18 18 18 17 17 18 16 15 15 14 13 13 13 13 13 14 14 15 15 15 15 15 16 14 12 14 13 11 11 11 12 13
51 47 46 45 45 44 43 42 42 42 42 42 41 41 42 43 45 47 45 43 42 39 38 34 28 28 26 20 17 15 15 16 20 25 24 21 22 22 20 18 16 16 16 17 19 22 21 18 17 19 19 19 18 19 19 18 17 16 16 16 15 14 13 10 8 9 11 13 13 13 14 14 13 12 13 15 14 12 13 14 13 12 12 12 13 14
50 47 48 48 46 45 45 44 42 41 41 41 40 41 42 42 45 49 46 43 42 39 35 29 25 27 24 16 15 16 14 17 24 27 24 20 21 22 22 20 17 16 16 16 17 19 19 17 16 18 19 19 19 20 20 17 15 14 13 14 13 12 11 8 6 7 9 11 12 12 12 11 10 11 12 12 11 12 15 14 13 13 13 13 13 14
50 48 48 47 45 44 45 44 39 38 39 39 40 43 43 42 43 46 47 44 43 40 35 30 28 27 23 20 20 17 15 18 24 25 23 20 19 19 21 19 17 15 14 14 15 16 17 17 15 14 14 17 20 21 21 18 15 13 12 12 12 11 10 7 6 7 9 10 10 11 12 11 11 12 12 11 12 15 15 14 13 13 13 13 14 15
49 46 43 42 42 42 42 40 36 37 39 39 43 46 43 39 37 39 44 45 44 42 39 35 30 24 21 24 26 19 15 18 22 24 23 21 18 16 17 17 15 12 10 11 13 14 17 18 17 15 13 16 20 21 21 19 16 13 12 13 12 11 9 6 6 8 9 10 10 12 12 12 13 12 11 12 14 16 15 14 14 13 13 13 14 15
49 43 37 38 41 41 39 37 34 34 36 38 43 46 41 35 31 31 38 45 46 45 42 40 34 24 20 24 28 25 24 25 27 28 24 19 16 14 14 15 13 12 11 12 14 15 18 19 19 18 16 18 20 21 21 20 16 13 13 13 12 10 8 6 7 9 10 11 12 13 13 13 13 12 12 13 15 15 14 14 13 13 13 14 14 15
43 33 27 33 40 41 39 40 38 36 38 37 39 42 43 39 33 31 35 40 45 47 44 41 39 33 26 25 27 28 30 30 29 30 24 17 14 14 15 15 13 12 12 13 14 15 16 17 18 19 19 21 22 21 20 19 16 12 12 12 11 8 7 7 8 10 12 13 14 13 12 12 13 12 12 14 15 15 14 14 13 13 13 14 15 15
36 28 27 33 38 40 41 42 43 42 41 38 37 40 44 42 37 33 33 33 35 40 42 41 41 40 34 30 28 27 28 30 28 27 25 21 18 16 17 17 14 14 14 13 14 14 15 17 19 21 22 24 25 22 20 20 18 15 13 11 9 8 8 9 11 12 14 14 14 12 12 12 12 12 13 14 15 14 14 13 13 13 14 14 15 15
33 29 33 35 33 38 41 43 45 43 40 40 39 41 44 44 40 35 30 28 28 29 32 35 37 38 33 28 29 28 28 30 29 28 28 28 24 18 15 14 14 14 13 13 15 16 18 20 21 22 24 25 26 23 21 22 21 18 15 12 10 10 12 13 13 14 15 15 14 12 12 12 12 12 14 15 14 14 13 12 13 14 14 14 15 15
35 31 35 36 34 37 39 42 45 41 38 41 41 41 44 44 43 39 31 27 28 24 22 25 30 31 27 23 24 27 28 30 30 29 29 28 24 20 18 16 16 15 14 14 16 18 20 21 21 23 25 25 26 24 22 23 23 22 18 15 13 13 13 12 12 13 14 14 13 12 11 12 12 13 14 14 14 13 12 12 13 14 14 14 15 16
38 34 35 33 32 34 33 37 43 37 32 38 40 40 42 43 43 44 35 25 24 22 18 18 21 23 22 21 23 24 27 31 32 31 28 25 24 25 24 24 22 20 18 18 18 20 22 23 23 23 24 25 25 24 23 23 23 22 19 15 13 12 11 10 10 11 12 12 11 11 11 12 13 14 14 13 12 12 12 13 14 14 14 15 15 17
40 40 39 29 25 28 28 34 42 37 31 35 40 40 40 41 42 41 34 23 18 19 18 17 18 22 21 21 25 28 29 33 35 34 28 22 21 25 28 27 24 22 21 21 21 22 25 24 22 21 21 23 24 24 24 24 23 21 17 14 12 10 9 8 9 10 10 10 10 11 11 12 12 13 13 12 12 13 13 14 15 15 15 15 16 18
38 39 39 33 30 31 32 38 45 45 41 40 41 42 39 37 39 38 33 26 21 21 21 17 16 22 24 23 25 29 32 33 34 31 24 17 16 20 22 21 20 22 22 22 22 24 25 23 20 20 22 24 25 24 23 23 21 19 15 13 10 8 7 8 8 9 9 10 10 10 11 11 11 12 13 13 13 14 14 15 15 15 15 16 17 19
34 33 37 37 36 37 39 43 47 48 46 43 41 43 39 35 36 35 33 31 29 27 23 16 12 18 24 25 24 26 29 29 28 25 21 18 17 17 16 15 17 20 21 21 22 23 24 23 21 22 23 24 26 25 23 22 20 18 15 12 9 7 6 7 8 8 9 9 9 10 10 11 12 13 13 14 14 15 15 15 16 15 16 17 19 20
30 29 35 33 31 34 35 38 44 46 45 42 40 40 39 36 34 33 34 35 34 30 24 19 17 17 20 22 23 24 26 27 27 26 24 23 21 17 14 15 18 21 21 21 21 23 25 23 22 23 25 26 26 24 24 23 20 19 17 12 9 7 6 6 8 9 9 10 10 10 11 11 13 14 14 15 16 16 16 16 17 17 18 20 22 23
25 26 33 29 25 28 28 29 37 44 44 41 37 39 41 38 36 36 36 35 35 33 27 24 24 23 20 21 23 24 25 27 29 29 26 24 23 20 18 18 20 22 22 22 22 25 25 24 24 25 26 27 27 25 25 24 21 21 18 13 10 8 6 7 8 10 11 11 11 11 12 13 14 15 16 17 17 17 17 18 19 20 21 23 25 26
22 23 29 27 25 23 20 21 29 39 44 42 36 38 42 38 34 36 35 32 34 34 30 27 28 27 23 23 25 24 23 24 26 26 25 23 21 21 21 20 21 23 23 24 25 25 26 26 27 26 26 27 27 27 25 23 23 23 19 14 11 9 8 9 9 11 11 11 12 13 14 16 16 17 18 19 19 18 19 20 21 22 24 26 27 28
26 24 27 26 24 19 15 17 21 28 38 42 39 37 39 38 34 34 32 29 31 33 31 28 28 28 28 28 28 27 25 25 24 22 22 22 21 21 21 21 20 20 21 24 25 26 26 27 28 26 26 27 27 25 23 23 24 24 20 16 14 11 10 11 11 11 11 12 14 15 16 17 18 19 19 19 19 20 21 22 23 24 26 27 29 29
30 26 26 25 23 19 17 17 17 19 25 36 40 35 34 37 38 35 32 28 28 31 32 29 27 28 31 33 33 31 28 26 25 22 21 21 20 20 22 23 23 21 21 22 24 26 27 27 26 24 24 27 26 23 22 24 24 24 22 20 17 14 13 13 12 12 12 14 15 17 18 18 19 19 19 19 20 22 22 23 24 25 27 28 29 30
32 27 26 27 26 24 23 24 25 23 19 26 36 35 33 38 41 39 36 31 27 30 33 32 30 30 32 31 32 32 30 29 28 27 25 23 22 22 23 24 24 23 22 23 24 26 27 25 23 21 22 25 23 20 21 23 22 21 21 19 17 15 15 14 13 13 14 15 17 19 20 21 22 22 21 21 21 21 22 22 24 26 26 27 30 31
31 29 30 31 32 31 29 29 31 29 21 23 33 37 36 38 40 42 41 34 30 32 35 32 30 32 32 29 27 26 26 27 29 29 27 25 24 22 22 22 22 21 22 23 25 26 26 23 21 20 20 21 20 19 20 20 19 19 19 18 17 16 15 14 14 14 16 17 19 20 21 22 22 22 21 20 20 20 21 23 24 26 26 27 30 32
33 33 34 35 35 36 33 32 32 30 26 25 31 38 39 37 39 43 45 41 34 35 37 35 32 33 33 33 30 26 24 24 24 25 25 24 22 21 19 19 20 20 20 22 24 25 24 22 20 20 21 21 21 19 18 18 18 18 19 18 17 16 15 14 15 15 17 18 18 20 21 20 19 18 19 20 20 20 22 23 25 27 27 29 31 32
36 36 36 34 35 37 36 34 34 33 31 28 29 35 39 39 38 39 43 45 41 37 37 37 37 37 36 35 33 29 27 26 23 21 22 22 22 21 18 16 17 19 20 22 24 24 23 22 21 21 22 22 21 19 18 18 18 18 18 18 18 17 16 16 15 16 17 17 17 18 19 19 17 17 18 20 20 21 23 24 26 27 28 30 31 31
36 36 35 32 33 36 37 36 36 35 33 30 29 30 32 35 37 36 37 41 43 43 41 40 41 41 40 37 34 30 29 28 25 23 23 23 23 23 20 16 16 17 20 23 26 26 24 22 22 22 22 22 21 20 19 19 19 19 20 20 20 19 19 17 16 16 16 17 17 16 16 16 17 18 19 20 21 22 24 25 26 27 29 30 30 31
35 35 34 32 32 35 37 36 35 33 31 29 27 26 27 31 35 35 34 34 38 42 43 43 43 43 41 36 34 32 30 28 26 24 22 21 22 23 21 18 16 17 20 23 25 25 24 23 24 24 24 24 23 21 20 20 22 24 24 22 21 21 20 18 17 18 18 17 18 18 17 17 18 19 20 20 22 23 25 26 27 29 30 31 31 30
34 33 32 31 32 34 35 34 31 28 27 25 24 23 23 26 31 34 33 33 35 38 38 38 38 39 38 34 33 34 32 29 26 24 22 21 21 21 21 19 17 18 21 23 23 23 23 24 25 25 26 25 24 23 22 22 24 26 24 22 22 22 21 19 19 20 20 19 20 21 20 21 21 21 21 22 23 25 26 28 29 30 31 32 31 30
33 31 31 30 31 32 34 33 31 27 26 25 24 22 21 24 27 29 30 33 36 37 36 36 34 35 36 35 34 35 33 29 27 25 23 23 22 21 20 20 19 19 21 24 24 24 24 25 25 26 25 25 24 23 23 23 24 25 24 23 23 22 20 20 21 22 22 21 22 23 23 24 24 23 23 24 25 27 28 30 31 31 32 32 31 29
35 33 32 31 32 33 32 31 31 29 27 27 26 24 23 24 26 27 28 31 35 34 33 32 32 34 35 34 35 35 33 29 28 27 25 25 24 22 20 21 21 21 22 24 26 27 27 26 26 26 25 24 23 23 23 22 23 24 24 23 23 22 22 22 23 23 23 23 24 26 26 26 25 25 25 26 27 29 30 31 32 32 32 32 30 28
38 37 35 31 31 33 31 29 30 30 28 28 27 24 23 24 26 28 29 30 31 30 28 28 28 30 34 36 36 36 33 30 29 27 27 27 26 23 22 23 24 24 24 25 26 27 28 28 28 27 26 26 26 25 24 23 23 24 24 24 23 23 24 25 25 24 24 25 27 28 28 27 27 27 27 28 29 30 31 32 33 33 33 31 29 27
38 37 35 32 30 32 32 31 31 30 28 28 27 25 24 26 28 29 29 30 30 28 26 26 26 27 31 35 37 36 35 32 30 28 28 28 27 25 24 24 25 26 26 27 27 27 27 28 28 28 27 27 27 26 25 25 24 25 25 25 25 26 27 27 26 25 26 27 28 29 29 28 28 29 29 30 31 32 32 33 33 33 33 31 29 28
36 34 33 31 30 30 30 31 33 31 28 27 25 24 25 26 27 27 27 28 28 27 27 27 26 27 31 33 34 35 35 33 31 30 28 28 28 27 26 25 26 27 28 29 29 28 28 28 28 27 28 28 28 28 27 26 26 26 26 27 28 29 28 27 26 26 27 28 29 29 30 30 30 30 31 31 32 32 33 33 33 33 32 30 28 27
31 32 32 31 30 29 28 30 32 33 30 27 24 23 23 23 23 23 22 24 25 26 27 28 29 31 32 31 30 30 30 29 30 30 29 28 28 29 28 27 27 28 29 30 30 30 30 30 29 29 29 29 30 29 29 28 28 28 28 28 29 29 28 28 27 28 29 30 30 31 31 32 32 32 32 32 32 33 32 32 32 32 31 29 28 25
27 30 31 31 31 31 30 29 30 30 31 28 25 23 23 23 22 21 21 22 24 25 26 28 31 33 34 32 29 27 26 25 27 29 28 27 28 28 28 29 29 29 30 30 30 30 31 31 32 32 31 31 31 30 30 29 30 30 29 30 31 31 31 30 30 30 31 32 32 33 33 33 33 33 33 33 33 33 32 31 31 31 30 29 27 24
25 26 28 29 31 31 31 29 26 27 31 32 29 25 24 23 23 23 22 22 23 25 26 28 30 31 32 31 31 31 29 27 26 27 26 24 25 27 28 30 30 30 30 31 31 31 31 31 32 33 33 33 32 31 31 31 31 32 32 32 33 34 33 32 31 32 33 34 34 34 34 34 34 33 33 34 33 32 31 31 31 30 29 28 28 25
24 25 26 27 28 29 30 29 25 23 27 33 33 30 27 24 23 23 24 23 23 24 25 27 28 29 29 29 30 32 30 27 26 26 24 22 24 26 28 30 31 30 30 31 31 32 31 32 32 32 32 32 32 32 32 32 33 34 34 34 35 35 34 33 32 33 34 35 35 35 34 34 34 34 35 35 33 32 31 31 30 29 28 27 25 23
23 24 24 25 26 28 29 30 29 24 23 26 31 32 30 26 22 21 22 23 23 24 25 26 27 28 27 28 29 30 29 27 26 25 23 23 24 26 28 30 31 32 32 32 31 31 31 31 32 31 32 31 31 32 32 33 34 34 33 32 34 34 33 32 33 34 35 35 35 35 35 34 35 36 36 34 33 32 31 30 30 28 25 22 19 18
22 23 23 23 25 27 27 28 29 27 23 21 23 27 30 28 24 21 21 21 22 23 24 25 27 28 28 28 29 29 27 27 26 25 24 24 26 27 29 30 31 32 33 33 33 33 32 32 32 32 32 32 32 32 33 33 34 34 32 32 33 34 33 34 34 35 35 35 36 36 35 36 36 37 36 34 33 32 30 29 28 25 21 17 16 17
21 22 23 22 23 25 24 24 26 26 24 21 21 22 26 28 28 25 22 21 21 22 23 24 25 26 27 28 28 29 28 28 27 25 24 25 27 28 29 30 31 32 32 33 33 33 33 33 33 33 33 33 33 33 34 35 35 34 33 34 35 35 35 35 36 36 36 36 36 36 36 37 37 37 36 34 32 30 28 27 25 22 19 17 17 19
20 21 22 21 21 21 21 21 22 23 23 23 22 22 24 27 28 27 26 24 22 22 22 22 23 25 26 26 27 28 28 28 27 24 24 25 27 28 29 30 31 32 32 32 33 33 33 33 33 33 34 34 34 34 36 37 36 35 33 34 35 36 36 37 37 37 37 37 37 37 37 38 38 36 34 32 31 29 27 25 23 21 19 18 17 18
Wind_Direction
218 219 221 222 221 221 222 224 226 226 227 229 230 229 230 233 235 236 231 223 232 239 234 231 239 243 240 239 238 239 244 247 248 251 255 256 257 261 262 261 261 260 257 252 245 245 248 243 240 240 240 241 243 245 241 240 245 251 259 264 264 264 265 265 263 263 264 263 265 267 268 269 270 272 276 277 274 273 274 277 271 257 258 281 279 274
218 220 222 222 221 222 223 224 225 225 226 227 228 228 227 227 228 230 226 212 221 239 241 234 237 248 248 240 236 237 244 245 247 253 257 257 256 257 260 262 261 256 253 251 246 243 244 243 243 241 241 244 251 259 254 248 252 259 261 262 262 263 265 265 263 263 263 263 266 267 268 270 272 276 279 279 279 279 276 274 264 258 273 293 278 273
217 220 220 220 220 220 221 222 223 224 225 225 225 227 225 224 221 222 222 207 211 233 244 244 244 257 261 252 240 236 242 245 245 249 252 254 255 253 256 259 261 258 253 249 241 237 238 241 244 245 248 253 257 260 257 253 255 260 262 262 262 263 265 266 264 262 260 262 265 267 271 273 276 280 281 283 284 282 276 268 257 262 283 284 267 276
218 219 218 218 217 218 218 219 220 221 221 221 223 224 225 226 220 214 219 211 212 229 242 250 255 261 265 260 249 238 237 241 242 245 247 249 251 250 250 253 258 259 254 246 236 234 237 236 238 242 248 252 254 254 254 255 256 258 261 261 261 261 261 265 266 262 261 264 266 269 272 275 279 283 286 288 285 280 272 257 253 267 276 266 267 282
218 219 217 218 217 217 217 216 219 220 218 218 221 222 221 226 222 209 205 201 210 230 239 248 252 254 260 258 249 241 237 238 240 245 248 249 250 250 249 248 253 257 253 243 234 233 234 232 234 240 244 246 247 248 249 252 253 254 258 259 260 259 259 263 266 265 265 266 268 271 272 274 280 285 287 284 278 274 260 250 265 274 263 261 272 278
215 216 215 218 219 218 217 216 218 219 217 216 219 220 218 223 219 194 170 181 214 237 237 240 244 248 258 257 247 245 242 239 240 246 250 252 254 255 255 252 253 255 250 242 235 231 231 230 230 236 240 242 246 249 250 250 249 251 256 258 257 257 258 260 262 264 264 263 266 270 272 275 280 283 280 272 265 257 250 259 274 270 258 265 270 273
212 213 212 216 217 217 216 216 218 218 216 215 217 218 215 221 214 177 159 184 219 241 239 240 243 243 253 259 258 256 249 245 245 247 250 251 252 256 256 252 253 255 250 243 238 233 232 231 230 233 237 240 244 248 249 249 249 250 253 253 251 251 256 259 260 260 260 260 263 267 271 273 275 278 274 266 255 245 253 265 267 259 259 265 269 282
210 211 210 212 214 215 215 216 216 216 215 214 214 212 209 220 212 175 172 198 212 230 237 240 243 242 247 254 259 259 254 251 250 248 248 250 253 254 252 250 252 255 254 249 244 236 232 231 229 231 236 238 240 243 245 246 249 250 249 250 249 250 256 259 259 259 259 259 261 264 266 266 268 271 268 265 259 253 257 262 257 257 264 269 281 294
209 210 210 209 211 213 213 215 215 214 214 211 210 210 204 214 206 176 181 201 206 220 230 236 242 245 250 252 253 253 248 246 247 248 253 257 257 251 249 253 256 257 255 252 249 240 232 229 226 224 232 238 237 237 238 239 245 250 250 249 250 255 261 262 261 261 260 258 260 261 259 259 262 263 265 267 259 253 259 265 262 265 272 280 289 294
207 209 210 208 211 213 212 213 214 212 212 207 207 206 202 207 198 181 188 191 196 217 226 234 241 247 254 254 249 244 238 241 246 248 253 255 255 251 250 257 263 264 257 248 244 238 229 224 219 217 230 238 235 234 234 236 243 248 248 247 251 258 263 263 261 261 258 256 259 256 253 255 258 262 267 255 240 255 276 273 265 271 280 285 290 294
206 208 210 208 209 213 211 211 213 211 207 203 205 203 197 202 197 191 195 188 194 215 221 232 243 247 253 248 241 237 231 238 246 246 248 251 256 258 257 259 264 273 264 243 234 228 222 220 218 222 236 240 237 236 235 237 242 245 244 246 249 250 253 257 259 259 257 257 256 251 249 253 259 266 264 238 240 273 289 268 267 277 282 285 290 293
204 207 209 207 206 208 209 208 209 209 204 202 206 202 196 197 197 200 201 193 202 216 216 224 236 243 247 237 232 234 234 239 248 251 254 259 265 267 265 262 263 275 271 240 224 218 218 218 217 227 237 238 239 239 238 237 239 241 242 240 237 239 253 261 258 254 253 255 253 249 250 255 260 264 253 237 255 282 281 263 270 277 280 284 286 289
203 205 208 206 203 204 205 204 204 205 203 202 204 202 198 194 194 203 204 198 205 215 218 224 228 234 242 238 231 240 249 252 255 256 257 262 266 265 265 263 262 270 269 244 229 226 222 217 217 226 232 234 238 241 242 240 237 240 237 230 229 242 261 264 253 247 246 248 249 248 252 257 257 253 246 249 268 279 267 262 270 276 279 281 282 286
200 201 205 206 201 201 203 203 202 204 203 201 200 201 200 195 196 202 204 201 204 212 221 226 223 223 232 239 243 253 266 268 263 259 256 258 262 258 256 256 253 253 254 246 237 229 224 227 232 235 232 232 237 243 245 243 239 237 230 224 231 245 252 249 247 252 249 243 242 246 252 252 246 245 252 262 272 269 260 263 270 275 276 277 281 287
199 199 202 203 199 198 203 204 203 205 204 199 198 200 200 199 202 205 204 202 203 209 219 221 218 221 220 222 238 243 248 259 262 256 248 250 257 252 247 251 252 249 247 243 235 229 233 243 243 238 234 234 239 246 249 245 235 227 223 223 230 235 232 231 247 258 251 238 234 240 241 238 241 253 261 265 266 259 258 263 266 268 271 276 282 286
200 202 202 201 198 197 201 203 198 201 205 198 196 201 203 202 205 207 205 204 206 211 215 214 218 226 219 207 218 231 235 244 253 249 239 240 250 246 241 245 252 251 246 242 240 241 243 240 230 225 230 237 240 246 248 243 231 221 221 222 222 222 221 224 243 252 245 232 225 225 228 239 258 265 264 262 259 257 258 260 261 264 270 276 281 285
199 203 203 200 199 198 202 203 196 199 203 196 196 204 204 202 206 210 208 207 212 215 217 215 214 222 220 206 210 226 236 234 242 246 240 236 239 242 239 237 242 246 242 240 241 240 234 232 231 232 236 240 240 243 244 238 230 223 219 218 217 216 213 219 238 245 237 222 214 220 237 258 268 266 261 255 252 254 255 256 259 265 272 277 282 286
198 200 200 198 198 197 199 196 190 200 203 197 200 203 197 196 204 212 210 210 214 218 220 218 213 216 225 216 212 224 237 237 242 249 247 236 233 243 244 237 236 237 233 234 237 234 229 231 239 241 241 240 239 243 241 231 224 221 216 215 214 210 210 224 241 244 237 226 225 238 255 265 264 260 256 249 248 252 254 257 263 269 275 279 283 286
194 193 196 198 196 195 194 187 184 197 201 197 203 203 195 195 200 206 210 211 215 219 222 222 221 219 224 228 223 226 239 243 244 249 247 236 233 247 252 245 237 228 225 231 235 234 233 235 238 238 237 238 239 242 236 223 216 213 209 210 212 210 216 232 243 245 242 238 242 252 260 259 255 252 250 247 249 253 256 261 267 272 277 281 283 284
183 185 195 200 197 195 193 189 192 201 198 191 199 204 199 198 200 204 209 212 216 221 224 226 229 228 226 229 228 224 236 245 249 254 254 250 253 260 256 243 227 216 217 226 233 236 240 240 236 230 230 234 237 237 229 219 214 210 209 214 220 223 234 245 247 244 242 244 248 252 254 252 250 246 245 247 249 252 257 262 267 273 279 281 282 284
175 185 197 199 198 197 196 196 201 204 197 189 193 202 202 198 200 203 207 213 216 222 225 224 229 234 229 229 231 229 235 245 253 259 261 262 262 257 247 232 216 213 217 228 236 240 244 243 236 230 229 231 234 234 228 222 219 218 220 227 233 239 247 249 245 240 241 245 247 248 250 249 247 244 245 248 249 252 257 263 270 276 280 282 285 290
177 188 196 198 199 199 197 197 199 199 196 191 191 200 203 198 199 203 207 217 220 222 228 225 227 231 228 228 234 234 237 243 248 253 256 261 255 242 238 234 227 227 229 234 238 242 247 247 241 235 232 232 233 233 231 228 227 227 228 234 240 244 243 236 234 237 240 243 246 249 250 248 247 247 248 251 253 256 261 268 274 278 281 285 290 295
181 189 196 200 204 202 195 194 196 191 189 195 197 201 204 199 202 206 208 216 221 220 228 232 226 221 216 218 222 228 240 245 246 247 250 254 249 239 238 239 239 242 241 238 239 243 245 243 239 235 234 234 232 231 231 229 229 230 231 235 238 235 231 228 233 238 240 244 248 251 251 250 250 250 252 255 257 261 267 271 274 278 283 289 293 296
182 193 199 197 196 199 194 190 191 185 185 197 203 205 205 202 205 206 202 205 212 213 223 231 217 204 200 205 210 217 233 244 248 250 251 252 249 243 242 243 246 250 248 242 241 245 246 243 241 240 239 237 231 228 229 228 228 229 228 228 227 227 233 238 239 239 241 247 249 250 251 250 251 252 255 258 261 265 268 270 273 278 284 290 294 298
179 191 195 186 179 184 187 186 189 192 194 197 202 206 204 201 204 203 196 197 200 200 211 221 208 196 197 205 209 213 225 238 249 254 251 246 243 245 247 249 251 251 249 246 244 247 250 248 244 244 244 239 231 228 227 224 223 222 216 212 213 222 237 241 238 238 241 246 249 250 250 249 251 254 256 260 262 264 266 268 274 280 286 292 297 303
177 186 191 190 189 190 192 192 194 197 196 194 197 202 200 196 200 199 193 196 201 198 199 199 192 193 199 207 212 216 225 235 243 246 244 241 240 245 251 253 253 251 248 247 246 246 248 247 244 245 243 237 231 227 225 220 216 210 201 197 201 214 231 240 240 240 242 247 250 251 250 250 251 254 256 259 260 261 265 270 277 285 291 296 301 305
180 185 189 195 199 202 201 198 198 197 196 196 196 195 194 193 193 191 192 197 201 200 192 185 191 199 203 211 218 222 227 232 236 239 245 249 249 251 252 248 248 249 247 245 245 245 245 244 243 243 240 234 229 224 219 215 207 199 194 193 196 209 228 242 245 246 248 252 253 253 253 251 252 254 256 258 260 263 269 275 283 290 295 299 303 304
179 183 185 188 193 201 204 199 198 201 202 203 199 193 193 194 189 189 195 200 203 202 195 191 198 203 205 213 221 224 227 230 234 239 247 256 260 260 257 251 251 252 250 246 244 244 244 242 239 238 236 230 222 215 211 206 199 194 194 195 196 203 223 238 245 249 250 252 254 255 255 253 253 256 257 261 265 269 274 280 287 292 296 300 302 301
177 175 177 182 184 189 198 198 200 203 204 206 205 197 196 194 190 193 199 206 209 206 200 201 207 208 210 215 221 224 228 231 233 235 240 249 255 255 252 251 255 259 257 251 247 244 244 244 241 237 232 223 214 209 203 197 194 195 198 203 204 206 221 235 243 248 250 252 255 256 256 256 257 259 262 265 268 271 278 285 289 292 296 300 300 299
181 170 166 172 169 165 173 185 197 203 205 209 210 203 198 193 188 193 199 206 215 209 202 206 211 211 214 217 219 224 230 233 233 231 233 237 243 247 248 248 252 256 254 251 248 245 244 246 243 237 228 215 206 202 197 192 196 201 207 216 218 218 230 239 245 250 253 256 258 261 263 263 264 265 267 268 271 277 283 287 290 293 295 296 296 295
181 168 163 164 156 153 161 173 196 210 209 211 210 204 198 191 188 193 197 202 212 209 203 206 209 211 216 218 219 223 228 232 235 235 234 236 242 249 252 251 253 253 247 242 241 239 242 244 240 235 227 213 199 192 192 194 200 207 215 221 223 227 237 243 250 255 259 263 264 267 269 268 267 266 266 271 277 282 286 288 290 291 292 294 294 294
177 166 165 163 157 163 169 175 195 212 210 209 208 202 198 196 193 195 199 200 202 200 199 204 210 217 225 225 222 223 227 232 237 239 239 242 248 253 253 252 252 253 248 240 234 232 236 239 235 230 227 217 201 188 188 195 202 209 217 221 225 233 241 247 254 260 264 268 269 271 271 268 264 262 265 273 279 283 286 289 290 290 292 294 293 294
179 172 170 170 168 172 176 181 196 206 202 198 200 200 202 204 199 198 202 203 199 194 194 201 211 220 227 229 225 219 221 230 237 240 242 246 251 256 257 253 249 250 250 244 236 230 228 227 225 224 224 217 203 190 191 200 207 213 219 224 229 237 244 250 259 266 269 271 273 274 273 269 265 263 266 274 279 284 289 291 290 291 292 291 290 293
177 172 174 179 178 175 178 186 196 204 203 198 196 197 202 207 206 203 204 205 204 200 197 201 214 223 227 232 232 224 222 230 238 241 244 245 248 254 258 253 247 245 243 239 237 232 225 222 222 224 225 221 209 200 201 209 215 220 224 228 232 240 247 254 263 271 275 278 281 278 272 268 267 266 268 274 279 286 291 291 291 291 291 290 290 293
178 174 179 185 182 177 180 188 194 201 207 206 202 202 205 208 211 209 206 206 210 211 206 208 218 227 232 238 242 239 238 242 244 248 253 252 250 254 258 255 246 237 228 224 223 223 222 222 223 223 224 222 215 208 209 215 222 226 229 232 238 245 252 257 266 276 281 285 287 281 272 267 267 270 273 275 279 286 289 289 289 289 289 290 292 294
181 182 188 191 187 183 186 191 195 202 208 209 208 210 210 210 214 216 211 211 215 217 217 220 226 231 237 243 248 248 246 247 247 250 256 257 254 254 256 257 247 231 220 215 214 213 215 216 217 219 220 219 217 216 218 223 230 234 237 240 244 249 254 259 267 276 281 285 287 285 277 270 269 273 275 276 281 286 289 289 289 290 290 292 294 295
186 190 193 195 195 193 192 195 198 204 210 211 212 212 208 207 213 216 212 211 217 221 223 226 231 237 241 245 249 249 247 245 244 245 249 252 253 252 253 256 252 234 221 217 216 216 215 212 212 215 218 219 221 223 225 230 237 240 240 241 244 248 252 258 266 273 278 282 285 286 283 278 275 275 276 279 284 288 290 291 292 292 293 294 295 297
194 198 197 196 199 199 198 199 201 205 209 209 209 210 210 209 215 218 213 211 218 226 227 228 232 238 242 243 243 244 243 242 243 243 243 246 249 249 248 251 253 240 227 222 220 219 218 216 216 218 220 222 225 228 231 236 243 246 245 245 247 248 250 255 263 270 275 280 282 283 284 282 279 279 280 284 287 289 292 293 293 293 295 295 296 297
197 203 204 203 200 199 200 201 202 204 203 204 207 212 216 215 215 218 216 214 220 227 230 229 230 235 240 241 240 241 240 239 240 240 239 241 244 245 242 243 247 245 236 229 225 222 220 220 221 223 225 226 227 231 234 238 244 249 250 250 249 249 250 255 261 267 273 277 278 280 281 281 281 282 284 286 289 291 293 293 293 294 295 295 296 297
193 199 203 203 198 196 198 201 203 203 200 204 211 215 218 217 214 213 212 213 220 226 229 230 230 232 236 238 240 241 240 237 236 236 234 236 240 243 242 239 243 247 244 236 230 226 224 224 225 227 229 229 230 232 235 238 244 248 250 250 249 249 251 255 259 264 270 273 274 275 277 278 280 282 283 286 289 291 291 291 292 293 293 294 295 294
191 195 198 199 196 195 196 198 201 201 201 205 209 210 212 214 214 214 211 211 218 224 225 228 229 229 232 234 236 239 239 235 234 234 234 236 240 242 243 241 240 243 244 240 235 231 228 228 229 229 230 231 232 233 234 237 241 245 247 248 248 249 250 253 258 264 269 270 271 273 275 276 278 280 283 287 289 289 289 290 291 291 291 291 291 290
191 195 196 196 196 197 199 201 202 201 202 204 205 206 209 210 212 214 211 210 215 220 223 226 225 225 229 232 234 237 238 236 233 231 232 236 237 238 239 239 238 238 239 239 238 234 232 230 230 230 231 232 233 234 235 238 242 245 246 247 248 249 251 253 258 263 267 268 269 271 273 275 277 280 283 286 286 286 288 290 289 289 288 288 287 287
192 194 195 195 198 202 204 206 207 207 206 208 210 213 214 213 215 216 214 213 217 220 224 228 228 227 229 232 235 237 239 239 237 233 231 233 234 234 234 234 234 234 235 236 236 235 234 234 232 232 232 233 234 236 237 239 242 244 246 247 249 250 251 254 259 263 266 267 267 268 270 273 276 280 282 284 285 287 288 289 288 287 286 285 285 287
193 194 194 195 200 207 211 212 213 211 211 215 219 220 220 220 220 220 219 219 220 220 223 227 230 231 231 232 234 237 239 241 242 238 232 230 232 233 232 231 231 231 233 235 235 236 236 235 235 233 233 235 236 237 239 241 243 243 244 246 249 251 253 257 261 263 264 265 265 266 269 273 276 279 281 284 286 287 288 288 286 285 283 282 283 282
195 197 199 201 205 212 216 218 219 216 215 219 223 222 221 221 221 220 221 221 222 221 222 224 228 232 234 234 235 236 235 236 239 239 233 229 231 232 232 231 231 230 232 233 234 236 236 236 236 235 235 236 238 239 241 242 244 244 245 247 250 253 256 259 261 261 262 262 263 266 269 272 275 279 282 284 286 288 288 286 284 283 282 280 277 275
194 199 202 207 213 217 220 221 222 222 221 220 222 223 221 219 218 218 218 221 223 223 222 223 226 230 234 236 236 236 234 232 235 236 233 229 229 230 231 232 231 231 232 232 234 235 236 236 236 236 237 238 239 240 242 244 246 246 246 247 250 253 255 257 257 257 258 260 262 266 269 272 276 279 281 284 286 287 285 283 282 281 280 277 272 270
195 200 202 206 212 217 220 220 220 223 225 222 222 225 225 222 221 220 220 223 226 226 225 225 226 228 232 235 236 236 236 236 236 235 232 227 225 226 229 231 231 231 231 232 233 234 235 236 237 238 238 239 239 241 242 244 245 245 244 245 248 251 252 253 253 254 256 259 262 266 269 273 276 279 281 284 286 285 283 282 280 279 278 275 270 268
196 201 204 206 209 212 217 218 217 221 227 225 223 225 225 224 225 225 226 227 230 231 230 228 227 227 229 232 236 237 237 237 235 233 229 224 223 225 228 231 232 232 232 232 233 234 235 236 238 239 239 239 239 241 243 244 245 245 245 245 247 249 250 250 252 254 256 259 263 267 271 273 276 279 283 285 284 282 281 279 278 278 279 277 273 275
198 203 206 211 212 212 213 216 218 222 229 231 226 225 224 224 225 226 227 228 230 233 234 234 233 230 228 229 232 234 235 236 236 234 230 226 225 226 228 230 232 233 233 234 235 235 236 237 238 239 240 240 240 242 244 245 246 248 250 248 247 248 249 250 252 255 258 261 265 269 271 273 276 280 283 284 283 281 280 278 276 275 274 274 277 281
200 207 211 216 219 218 216 217 218 221 227 232 230 228 227 226 226 227 228 229 231 233 236 238 239 238 235 233 232 231 232 234 236 235 231 230 229 230 230 231 233 234 235 236 237 238 238 238 239 239 240 240 241 242 244 246 246 247 249 250 249 249 250 251 253 256 259 263 266 268 270 273 277 281 283 283 282 281 278 275 273 271 271 274 277 275
205 213 215 216 219 222 225 226 225 225 226 228 228 228 229 229 229 230 231 233 235 236 237 238 240 241 240 239 237 234 233 233 232 230 229 230 232 233 234 234 235 236 237 238 238 240 240 240 241 241 241 241 241 242 244 246 247 246 247 249 250 250 250 251 254 256 259 262 265 267 270 273 277 281 282 282 282 280 276 272 270 270 271 271 269 266
Height
5696 5698 5702 5706 5711 5716 5721 5725 5730 5736 5740 5744 5748 5752 5755 5758 5761 5764 5768 5770 5770 5770 5774 5778 5779 5780 5782 5784 5789 5791 5789 5790 5793 5794 5795 5797 5799 5802 5802 5803 5804 5805 5806 5807 5809 5812 5814 5814 5815 5816 5816 5816 5818 5821 5824 5826 5828 5830 5833 5834 5834 5835 5835 5835 5835 5835 5836 5837 5837 5838 5839 5840 5840 5840 5841 5841 5841 5841 5841 5842 5843 5844 5844 5844 5845 5845
5691 5693 5698 5704 5710 5716 5721 5724 5729 5733 5737 5741 5746 5749 5752 5755 5758 5762 5766 5768 5768 5768 5771 5775 5777 5776 5778 5781 5785 5787 5786 5787 5791 5792 5793 5795 5797 5801 5801 5801 5802 5802 5803 5805 5808 5810 5811 5812 5813 5814 5815 5816 5817 5819 5822 5825 5827 5829 5831 5831 5832 5833 5833 5833 5833 5834 5835 5835 5836 5837 5838 5838 5839 5839 5840 5839 5839 5840 5840 5841 5842 5843 5843 5843 5843 5843
5684 5689 5695 5702 5708 5714 5717 5722 5726 5730 5734 5739 5743 5745 5748 5751 5755 5759 5763 5765 5766 5767 5769 5771 5775 5775 5775 5778 5781 5784 5783 5784 5788 5790 5791 5792 5795 5798 5799 5799 5800 5800 5801 5803 5805 5807 5808 5809 5811 5812 5814 5815 5817 5818 5820 5823 5826 5827 5827 5828 5829 5830 5831 5831 5832 5832 5833 5834 5834 5836 5837 5837 5838 5838 5838 5838 5839 5839 5839 5840 5841 5841 5841 5842 5842 5842
5680 5686 5693 5699 5704 5708 5713 5718 5722 5726 5731 5735 5739 5742 5746 5749 5752 5756 5760 5763 5764 5765 5767 5769 5772 5774 5774 5774 5777 5780 5779 5780 5784 5787 5789 5791 5793 5795 5796 5797 5799 5799 5799 5800 5802 5804 5805 5807 5810 5811 5812 5814 5815 5817 5819 5822 5824 5824 5825 5826 5827 5828 5829 5830 5831 5831 5832 5833 5834 5835 5836 5836 5836 5837 5837 5837 5837 5837 5837 5838 5839 5839 5840 5840 5840 5840
5679 5686 5692 5697 5700 5705 5710 5715 5719 5722 5728 5732 5735 5739 5744 5748 5750 5754 5759 5763 5763 5764 5767 5769 5770 5770 5770 5772 5774 5776 5776 5777 5781 5785 5787 5789 5791 5793 5794 5795 5796 5797 5797 5798 5799 5801 5803 5805 5807 5809 5810 5811 5812 5814 5817 5819 5821 5822 5823 5824 5825 5826 5828 5829 5830 5830 5831 5832 5833 5833 5834 5835 5835 5835 5836 5835 5836 5836 5836 5838 5838 5838 5839 5839 5838 5838
5676 5682 5689 5693 5698 5704 5708 5712 5715 5719 5726 5730 5733 5737 5743 5746 5749 5754 5759 5762 5762 5762 5764 5766 5767 5768 5768 5770 5772 5772 5773 5775 5780 5783 5785 5787 5789 5790 5792 5793 5794 5794 5795 5796 5796 5798 5800 5803 5806 5807 5808 5809 5810 5811 5814 5816 5818 5820 5821 5822 5823 5824 5826 5827 5828 5829 5829 5830 5831 5831 5832 5833 5833 5833 5834 5834 5834 5834 5836 5837 5837 5837 5837 5837 5837 5837
5671 5678 5685 5690 5695 5701 5705 5709 5712 5717 5723 5727 5731 5737 5742 5744 5748 5752 5757 5760 5760 5760 5762 5763 5766 5767 5767 5768 5769 5769 5771 5774 5778 5780 5782 5784 5787 5788 5789 5790 5791 5791 5792 5793 5794 5795 5798 5802 5804 5805 5806 5806 5807 5809 5811 5814 5816 5817 5818 5820 5821 5822 5824 5825 5826 5826 5827 5828 5828 5830 5831 5831 5831 5832 5832 5832 5833 5833 5835 5836 5837 5837 5836 5835 5835 5835
5668 5674 5680 5686 5691 5697 5700 5704 5709 5715 5720 5725 5731 5736 5739 5742 5746 5749 5752 5756 5758 5761 5761 5761 5763 5766 5766 5767 5767 5767 5769 5772 5775 5778 5780 5782 5785 5786 5787 5787 5788 5789 5790 5791 5792 5793 5796 5799 5802 5803 5803 5804 5805 5807 5809 5811 5813 5814 5816 5817 5818 5820 5821 5822 5823 5823 5824 5826 5826 5827 5828 5829 5829 5830 5831 5832 5832 5832 5834 5835 5835 5835 5834 5833 5833 5833
5665 5669 5675 5682 5687 5692 5697 5702 5707 5713 5718 5724 5730 5734 5737 5741 5745 5748 5748 5752 5757 5759 5758 5758 5759 5761 5762 5763 5765 5765 5767 5770 5773 5776 5779 5781 5782 5783 5784 5785 5785 5787 5787 5788 5790 5791 5794 5797 5799 5800 5802 5803 5804 5806 5808 5809 5811 5812 5813 5814 5815 5817 5818 5820 5821 5821 5822 5823 5824 5825 5825 5826 5827 5829 5830 5830 5831 5832 5832 5833 5834 5833 5832 5831 5831 5831
5660 5667 5674 5680 5684 5689 5696 5701 5706 5710 5716 5724 5728 5731 5736 5740 5744 5745 5744 5747 5751 5752 5752 5754 5755 5756 5757 5759 5761 5762 5765 5769 5772 5775 5777 5778 5779 5779 5781 5782 5783 5784 5785 5785 5786 5789 5794 5796 5797 5799 5801 5802 5803 5804 5806 5808 5809 5810 5811 5813 5814 5815 5816 5818 5819 5819 5820 5821 5822 5822 5823 5824 5826 5827 5828 5829 5830 5831 5831 5831 5832 5831 5830 5830 5829 5829
5660 5666 5671 5677 5683 5689 5696 5700 5704 5709 5715 5721 5724 5727 5733 5738 5741 5742 5741 5744 5746 5745 5747 5750 5752 5754 5754 5755 5757 5760 5764 5768 5770 5773 5775 5776 5776 5776 5778 5780 5781 5782 5782 5782 5784 5788 5794 5796 5797 5798 5800 5801 5802 5803 5805 5807 5808 5809 5810 5811 5812 5814 5815 5817 5817 5818 5818 5819 5820 5821 5822 5824 5825 5826 5827 5827 5829 5829 5828 5829 5830 5830 5828 5828 5828 5828
5658 5662 5667 5674 5681 5687 5692 5697 5702 5706 5712 5716 5719 5725 5730 5734 5738 5740 5739 5741 5741 5741 5745 5747 5750 5753 5752 5752 5756 5759 5764 5766 5768 5770 5772 5774 5774 5774 5775 5777 5779 5780 5780 5781 5783 5787 5791 5794 5796 5797 5798 5799 5800 5802 5803 5805 5807 5808 5809 5810 5811 5812 5814 5815 5815 5816 5816 5817 5818 5819 5821 5823 5824 5825 5826 5826 5827 5827 5827 5828 5829 5828 5827 5826 5826 5826
5654 5658 5664 5671 5677 5682 5688 5693 5698 5702 5707 5711 5716 5721 5725 5729 5734 5735 5735 5736 5738 5740 5743 5745 5749 5751 5750 5752 5756 5760 5762 5764 5766 5768 5770 5771 5771 5772 5773 5775 5776 5778 5778 5780 5783 5785 5787 5790 5793 5794 5796 5797 5798 5800 5802 5804 5805 5806 5807 5808 5810 5811 5812 5812 5813 5813 5814 5815 5816 5817 5819 5822 5823 5824 5825 5825 5826 5825 5826 5827 5826 5826 5825 5825 5825 5825
5649 5655 5660 5666 5673 5679 5684 5688 5692 5696 5701 5706 5712 5716 5719 5724 5728 5729 5731 5734 5737 5740 5741 5743 5747 5749 5749 5752 5754 5757 5760 5762 5764 5765 5767 5768 5769 5770 5772 5774 5775 5777 5778 5780 5782 5784 5786 5788 5790 5791 5793 5795 5797 5798 5800 5801 5803 5804 5805 5807 5808 5809 5810 5810 5810 5811 5812 5813 5815 5816 5818 5820 5821 5822 5823 5824 5824 5824 5825 5825 5824 5824 5824 5824 5824 5824
5646 5650 5655 5662 5670 5676 5680 5685 5690 5695 5699 5704 5710 5713 5716 5721 5723 5726 5730 5733 5735 5737 5739 5742 5746 5747 5749 5752 5752 5754 5757 5759 5761 5762 5765 5767 5768 5770 5772 5774 5776 5777 5778 5780 5781 5783 5784 5786 5787 5789 5791 5794 5796 5798 5798 5799 5801 5802 5803 5805 5806 5807 5808 5808 5809 5809 5810 5811 5813 5815 5816 5818 5819 5821 5822 5822 5822 5823 5824 5823 5823 5823 5822 5822 5823 5823
5646 5650 5655 5662 5669 5674 5677 5682 5690 5694 5697 5704 5709 5711 5713 5718 5721 5725 5730 5732 5733 5735 5738 5741 5743 5745 5748 5751 5751 5752 5755 5757 5757 5759 5763 5766 5767 5769 5772 5774 5775 5776 5776 5778 5779 5780 5781 5783 5784 5787 5790 5793 5795 5796 5797 5798 5799 5801 5802 5803 5804 5805 5806 5807 5807 5808 5809 5810 5812 5813 5815 5817 5818 5819 5820 5820 5820 5821 5822 5822 5822 5821 5821 5821 5821 5821
5646 5650 5656 5662 5668 5673 5677 5683 5689 5691 5695 5702 5705 5706 5712 5717 5720 5724 5728 5731 5732 5734 5736 5740 5742 5743 5746 5748 5749 5750 5752 5754 5755 5757 5760 5763 5765 5767 5770 5772 5773 5773 5774 5775 5777 5778 5780 5782 5784 5786 5789 5791 5793 5794 5795 5797 5798 5799 5800 5801 5802 5803 5804 5805 5806 5807 5808 5809 5810 5812 5814 5815 5816 5817 5818 5818 5819 5820 5820 5820 5820 5820 5820 5820 5819 5819
5646 5650 5656 5662 5666 5671 5676 5682 5687 5689 5694 5700 5702 5705 5712 5716 5718 5721 5725 5728 5730 5731 5734 5737 5741 5742 5744 5746 5747 5748 5749 5751 5752 5755 5758 5762 5764 5767 5769 5770 5771 5772 5773 5774 5776 5778 5779 5781 5783 5785 5787 5789 5790 5792 5793 5795 5796 5798 5799 5800 5800 5801 5802 5803 5804 5806 5807 5808 5809 5811 5812 5813 5814 5815 5816 5816 5817 5817 5818 5818 5818 5818 5818 5818 5818 5817
5648 5653 5657 5660 5663 5668 5674 5679 5683 5686 5691 5698 5702 5706 5710 5712 5714 5717 5720 5723 5726 5728 5731 5735 5738 5741 5742 5745 5746 5746 5747 5748 5750 5753 5757 5761 5764 5767 5768 5769 5770 5771 5772 5774 5775 5777 5779 5780 5781 5782 5784 5786 5788 5790 5792 5793 5795 5796 5797 5798 5799 5800 5801 5802 5803 5805 5806 5807 5808 5809 5810 5811 5812 5813 5814 5814 5815 5815 5816 5816 5816 5816 5816 5816 5816 5815
5649 5653 5656 5658 5662 5667 5671 5676 5679 5682 5688 5695 5700 5704 5707 5711 5713 5715 5717 5720 5724 5727 5729 5733 5735 5737 5741 5743 5745 5746 5745 5746 5748 5751 5755 5759 5762 5765 5766 5767 5769 5770 5771 5773 5774 5775 5776 5776 5777 5780 5782 5784 5786 5788 5790 5792 5793 5794 5795 5796 5797 5798 5800 5801 5802 5803 5804 5805 5806 5807 5808 5809 5810 5811 5812 5813 5813 5814 5814 5815 5815 5814 5814 5814 5814 5813
5648 5650 5652 5656 5661 5665 5669 5674 5677 5681 5687 5692 5695 5699 5704 5709 5712 5715 5717 5719 5722 5725 5728 5731 5732 5735 5739 5741 5743 5745 5745 5745 5747 5749 5752 5756 5759 5762 5763 5764 5766 5768 5769 5770 5771 5771 5771 5772 5775 5779 5781 5783 5784 5786 5788 5790 5791 5793 5794 5795 5796 5797 5798 5799 5800 5801 5802 5803 5804 5805 5806 5807 5808 5809 5810 5811 5812 5812 5813 5813 5812 5812 5812 5812 5812 5811
5646 5648 5651 5654 5658 5663 5668 5673 5677 5681 5687 5690 5692 5695 5700 5706 5710 5712 5715 5717 5720 5723 5726 5729 5731 5734 5738 5740 5741 5742 5743 5744 5746 5748 5751 5754 5757 5759 5760 5761 5763 5764 5766 5767 5768 5768 5769 5771 5775 5778 5780 5781 5783 5784 5786 5788 5789 5791 5792 5794 5795 5796 5796 5797 5798 5800 5801 5802 5803 5804 5804 5805 5806 5808 5809 5810 5810 5810 5810 5810 5810 5810 5810 5810 5810 5809
5644 5647 5650 5654 5658 5664 5669 5674 5678 5682 5687 5690 5692 5694 5699 5704 5707 5709 5714 5717 5719 5723 5725 5727 5730 5733 5736 5738 5739 5739 5739 5741 5743 5746 5749 5752 5754 5755 5756 5757 5758 5760 5763 5765 5766 5766 5767 5769 5772 5775 5777 5779 5780 5782 5783 5785 5787 5789 5791 5792 5793 5794 5795 5796 5797 5798 5799 5800 5801 5802 5803 5804 5805 5806 5807 5808 5808 5808 5808 5808 5808 5808 5808 5808 5808 5807
5642 5645 5648 5654 5659 5664 5669 5674 5678 5680 5683 5687 5691 5693 5697 5701 5705 5708 5714 5718 5719 5722 5724 5725 5728 5732 5735 5737 5738 5738 5738 5738 5739 5743 5748 5750 5750 5751 5751 5753 5755 5757 5759 5762 5764 5764 5764 5766 5769 5773 5775 5777 5777 5779 5781 5783 5785 5787 5789 5790 5791 5792 5793 5794 5795 5796 5797 5798 5799 5800 5801 5803 5804 5805 5805 5806 5806 5806 5806 5806 5806 5806 5806 5806 5805 5804
5639 5643 5647 5651 5654 5659 5664 5669 5673 5675 5678 5682 5687 5690 5694 5699 5703 5708 5713 5716 5718 5721 5723 5724 5727 5730 5733 5734 5736 5737 5737 5737 5738 5741 5745 5747 5747 5748 5749 5751 5752 5753 5755 5758 5760 5761 5762 5764 5767 5769 5771 5773 5774 5776 5779 5781 5784 5786 5787 5788 5789 5790 5791 5792 5793 5794 5795 5797 5798 5799 5800 5801 5802 5803 5803 5803 5804 5804 5804 5804 5804 5804 5804 5803 5802 5801
5638 5641 5645 5648 5650 5654 5657 5661 5665 5669 5673 5678 5683 5688 5693 5696 5701 5707 5710 5713 5716 5718 5721 5723 5726 5729 5731 5732 5733 5735 5736 5737 5738 5739 5741 5742 5744 5746 5748 5749 5749 5750 5752 5755 5757 5758 5759 5762 5764 5766 5767 5769 5772 5775 5777 5780 5782 5784 5785 5787 5788 5789 5790 5791 5792 5793 5794 5795 5797 5798 5799 5800 5800 5800 5801 5801 5801 5801 5802 5801 5801 5801 5801 5800 5799 5798
5637 5640 5644 5649 5652 5655 5659 5662 5666 5670 5673 5677 5681 5687 5691 5694 5699 5705 5708 5710 5713 5717 5720 5721 5724 5727 5729 5730 5731 5733 5735 5736 5736 5737 5738 5739 5742 5745 5746 5747 5747 5748 5750 5753 5755 5755 5757 5759 5762 5763 5764 5767 5771 5774 5776 5778 5780 5782 5783 5785 5786 5787 5789 5790 5791 5792 5793 5794 5795 5796 5797 5797 5798 5798 5798 5799 5799 5799 5799 5799 5799 5799 5798 5797 5797 5795
5637 5640 5644 5649 5653 5657 5661 5666 5669 5672 5674 5677 5681 5686 5689 5692 5697 5702 5705 5708 5711 5715 5718 5719 5721 5723 5726 5728 5729 5731 5733 5734 5735 5736 5737 5739 5741 5743 5745 5745 5746 5747 5749 5751 5753 5753 5754 5756 5757 5758 5760 5764 5769 5771 5773 5775 5777 5779 5781 5783 5785 5786 5787 5789 5790 5790 5791 5792 5793 5794 5795 5795 5795 5796 5796 5796 5797 5797 5797 5796 5796 5796 5795 5795 5794 5793
5637 5640 5645 5649 5653 5657 5662 5666 5669 5671 5674 5676 5680 5684 5688 5692 5696 5699 5703 5707 5710 5713 5717 5717 5719 5722 5724 5726 5727 5728 5730 5731 5733 5735 5737 5738 5739 5741 5742 5743 5744 5746 5748 5750 5751 5751 5751 5752 5753 5755 5758 5762 5766 5769 5771 5773 5775 5777 5779 5781 5782 5784 5786 5787 5788 5788 5789 5790 5791 5792 5792 5793 5793 5793 5794 5794 5794 5794 5794 5794 5794 5793 5792 5792 5791 5790
5636 5640 5645 5649 5653 5656 5661 5664 5666 5670 5673 5675 5679 5683 5687 5692 5696 5698 5701 5705 5708 5711 5714 5715 5716 5719 5721 5722 5724 5726 5727 5728 5730 5732 5734 5736 5737 5738 5740 5741 5743 5744 5745 5746 5748 5749 5750 5750 5751 5754 5757 5760 5763 5767 5770 5772 5774 5776 5777 5778 5780 5782 5783 5784 5785 5786 5787 5788 5788 5789 5790 5790 5791 5791 5791 5791 5792 5792 5791 5791 5791 5790 5790 5789 5788 5787
5636 5641 5645 5649 5653 5656 5659 5662 5665 5668 5671 5674 5678 5682 5686 5691 5694 5696 5699 5701 5705 5709 5712 5712 5713 5714 5715 5718 5720 5723 5724 5726 5728 5730 5732 5734 5735 5737 5738 5739 5740 5741 5742 5743 5745 5746 5747 5748 5751 5753 5756 5758 5761 5765 5768 5770 5772 5774 5775 5776 5778 5780 5780 5781 5783 5784 5785 5786 5786 5787 5788 5788 5788 5788 5788 5789 5789 5789 5789 5789 5788 5788 5787 5786 5785 5784
5637 5641 5645 5649 5651 5654 5657 5660 5662 5665 5669 5672 5677 5681 5683 5687 5691 5694 5696 5698 5702 5706 5709 5710 5710 5711 5713 5716 5719 5721 5723 5725 5726 5728 5730 5732 5734 5735 5736 5737 5738 5739 5740 5740 5742 5743 5745 5747 5750 5752 5754 5757 5761 5764 5767 5768 5770 5771 5773 5774 5776 5777 5778 5779 5780 5782 5783 5784 5784 5785 5785 5785 5786 5786 5786 5787 5787 5787 5786 5786 5786 5785 5784 5783 5782 5781
5638 5641 5644 5647 5649 5652 5655 5658 5660 5663 5667 5670 5674 5678 5681 5684 5689 5692 5694 5696 5699 5703 5707 5708 5708 5709 5711 5713 5716 5720 5722 5723 5724 5726 5728 5730 5731 5733 5734 5735 5736 5737 5738 5739 5740 5741 5743 5745 5747 5750 5753 5756 5760 5762 5764 5765 5767 5769 5770 5772 5773 5775 5776 5777 5778 5779 5780 5781 5781 5782 5782 5782 5783 5784 5784 5784 5784 5784 5784 5783 5782 5781 5781 5780 5779 5777
5637 5641 5643 5645 5648 5650 5653 5656 5659 5663 5666 5668 5671 5674 5677 5681 5685 5689 5692 5695 5696 5700 5704 5706 5705 5706 5708 5710 5713 5717 5720 5721 5722 5724 5726 5728 5729 5730 5732 5734 5735 5737 5737 5738 5738 5740 5742 5744 5746 5749 5751 5754 5757 5759 5760 5762 5764 5766 5767 5769 5770 5772 5773 5774 5775 5776 5777 5777 5778 5778 5779 5779 5780 5781 5782 5782 5782 5782 5781 5780 5779 5778 5778 5777 5775 5774
5636 5639 5642 5645 5647 5650 5652 5655 5658 5661 5664 5667 5669 5672 5675 5679 5682 5687 5691 5693 5694 5697 5701 5704 5704 5704 5706 5708 5710 5715 5717 5719 5721 5724 5724 5725 5727 5729 5729 5731 5733 5735 5737 5737 5738 5739 5742 5744 5745 5748 5750 5752 5754 5756 5758 5759 5761 5762 5764 5766 5767 5768 5769 5770 5772 5773 5773 5774 5774 5775 5776 5776 5777 5778 5779 5779 5779 5779 5778 5777 5776 5775 5774 5773 5772 5771
5637 5639 5643 5646 5649 5650 5652 5655 5657 5659 5662 5665 5668 5671 5675 5678 5681 5684 5688 5691 5692 5695 5698 5701 5702 5702 5703 5706 5709 5712 5715 5718 5721 5723 5723 5723 5724 5726 5727 5729 5731 5733 5736 5737 5738 5739 5741 5743 5744 5745 5747 5749 5751 5753 5755 5756 5758 5759 5760 5761 5762 5764 5765 5766 5768 5769 5770 5771 5771 5772 5773 5774 5774 5775 5775 5776 5776 5775 5775 5774 5773 5772 5771 5770 5769 5768
5637 5639 5643 5647 5649 5651 5652 5654 5657 5659 5662 5665 5668 5670 5674 5677 5678 5681 5685 5688 5689 5691 5695 5698 5699 5699 5701 5704 5706 5709 5712 5715 5719 5721 5721 5721 5721 5723 5725 5727 5728 5731 5734 5736 5737 5738 5740 5741 5742 5743 5744 5746 5748 5750 5752 5754 5754 5754 5755 5756 5758 5759 5761 5763 5765 5766 5767 5768 5768 5769 5770 5771 5771 5772 5772 5773 5773 5772 5771 5770 5769 5768 5767 5766 5765 5764
5637 5639 5642 5646 5649 5651 5653 5655 5657 5660 5662 5665 5667 5670 5672 5675 5676 5678 5682 5685 5686 5688 5691 5694 5696 5697 5698 5701 5703 5705 5708 5712 5715 5718 5720 5719 5719 5720 5722 5723 5725 5727 5730 5732 5734 5736 5737 5738 5739 5740 5742 5743 5745 5747 5749 5751 5752 5752 5752 5753 5755 5757 5758 5760 5762 5763 5764 5765 5766 5766 5767 5768 5768 5769 5769 5769 5769 5768 5767 5767 5766 5765 5764 5763 5762 5761
5636 5639 5642 5644 5647 5650 5652 5654 5656 5658 5661 5664 5666 5669 5671 5673 5674 5676 5680 5682 5682 5683 5686 5690 5693 5694 5694 5697 5699 5702 5705 5709 5712 5715 5716 5717 5717 5719 5720 5721 5722 5724 5726 5729 5731 5733 5735 5736 5737 5738 5740 5742 5744 5745 5747 5749 5749 5750 5751 5752 5753 5755 5756 5758 5759 5760 5761 5762 5763 5764 5764 5764 5765 5765 5766 5765 5765 5764 5764 5763 5762 5761 5760 5759 5758 5757
5634 5637 5639 5642 5645 5648 5650 5652 5654 5657 5660 5663 5664 5667 5669 5671 5672 5674 5677 5678 5678 5680 5683 5686 5689 5691 5691 5693 5696 5698 5702 5706 5708 5711 5713 5714 5715 5717 5719 5720 5721 5722 5724 5726 5728 5730 5732 5733 5735 5737 5739 5741 5742 5744 5745 5747 5747 5748 5749 5750 5751 5753 5754 5755 5756 5757 5758 5760 5760 5761 5761 5761 5762 5762 5762 5762 5761 5761 5760 5759 5758 5757 5756 5755 5754 5754
5631 5634 5637 5640 5643 5645 5647 5649 5651 5655 5658 5660 5662 5665 5666 5668 5669 5670 5673 5674 5675 5678 5681 5684 5686 5688 5689 5690 5693 5695 5698 5701 5705 5708 5710 5712 5713 5716 5717 5718 5719 5720 5722 5724 5726 5727 5729 5731 5733 5735 5736 5738 5740 5741 5742 5744 5745 5746 5747 5748 5749 5750 5751 5752 5753 5755 5756 5757 5757 5757 5758 5758 5759 5759 5758 5758 5758 5757 5756 5756 5754 5753 5752 5752 5751 5751
5629 5632 5635 5638 5641 5643 5645 5647 5650 5653 5656 5658 5660 5662 5663 5665 5666 5667 5670 5672 5674 5677 5680 5681 5684 5686 5686 5687 5689 5692 5695 5698 5702 5706 5708 5709 5711 5713 5714 5715 5717 5718 5720 5722 5723 5725 5726 5728 5730 5732 5734 5735 5737 5738 5740 5741 5743 5744 5745 5746 5747 5747 5748 5749 5751 5752 5753 5753 5754 5754 5755 5755 5755 5755 5755 5755 5754 5753 5753 5752 5751 5750 5749 5748 5748 5747
5629 5632 5635 5638 5640 5642 5643 5645 5648 5651 5654 5656 5658 5660 5661 5662 5664 5666 5669 5671 5674 5676 5678 5680 5681 5683 5683 5685 5688 5690 5693 5696 5699 5703 5705 5707 5708 5709 5711 5713 5715 5716 5717 5719 5721 5722 5724 5725 5727 5729 5731 5732 5734 5735 5737 5739 5740 5741 5742 5743 5743 5743 5744 5746 5747 5749 5749 5750 5750 5751 5751 5751 5752 5752 5752 5751 5751 5750 5749 5748 5747 5746 5745 5745 5744 5743
5630 5632 5635 5637 5639 5641 5643 5644 5646 5650 5653 5655 5656 5658 5660 5661 5663 5666 5668 5670 5672 5675 5677 5678 5678 5679 5680 5683 5686 5689 5692 5695 5696 5699 5702 5704 5705 5706 5709 5710 5712 5713 5714 5716 5718 5719 5721 5723 5725 5726 5728 5729 5731 5733 5734 5736 5736 5737 5738 5740 5740 5740 5741 5742 5744 5745 5746 5747 5747 5747 5748 5748 5748 5748 5748 5748 5747 5746 5745 5744 5743 5742 5742 5741 5741 5740
5629 5631 5634 5636 5638 5639 5641 5643 5646 5649 5652 5654 5655 5656 5658 5660 5661 5663 5665 5667 5669 5672 5674 5675 5676 5676 5678 5681 5684 5686 5689 5691 5692 5695 5699 5701 5702 5704 5706 5707 5709 5710 5712 5713 5715 5716 5718 5720 5722 5723 5725 5726 5728 5730 5732 5733 5733 5734 5735 5736 5737 5737 5738 5739 5741 5742 5742 5743 5743 5744 5744 5745 5745 5745 5744 5744 5743 5742 5741 5740 5739 5738 5738 5738 5738 5737
5628 5630 5632 5635 5636 5638 5640 5642 5645 5648 5650 5651 5653 5654 5655 5657 5659 5661 5663 5664 5666 5668 5670 5672 5673 5674 5676 5679 5681 5683 5685 5687 5689 5692 5695 5698 5700 5701 5702 5704 5705 5707 5709 5710 5712 5713 5715 5716 5718 5720 5722 5723 5725 5727 5728 5729 5730 5730 5732 5733 5733 5734 5735 5736 5737 5738 5739 5739 5740 5740 5741 5741 5741 5741 5740 5740 5739 5738 5737 5736 5735 5735 5734 5734 5733 5734
5627 5628 5630 5632 5634 5636 5639 5641 5644 5646 5647 5648 5650 5652 5654 5656 5658 5659 5661 5662 5663 5666 5668 5669 5671 5672 5674 5676 5678 5679 5682 5685 5687 5689 5693 5695 5697 5698 5699 5700 5702 5704 5705 5707 5709 5710 5712 5713 5714 5716 5718 5719 5721 5722 5723 5724 5725 5725 5726 5728 5729 5730 5732 5733 5734 5734 5735 5735 5736 5737 5737 5737 5737 5737 5736 5736 5735 5734 5733 5732 5731 5731 5730 5730 5730 5730
5625 5627 5629 5631 5632 5634 5636 5638 5641 5644 5644 5645 5647 5649 5652 5654 5656 5658 5660 5661 5662 5663 5665 5667 5669 5671 5672 5674 5675 5677 5679 5682 5684 5687 5689 5692 5693 5694 5695 5697 5698 5700 5702 5703 5705 5707 5708 5710 5711 5713 5714 5716 5717 5718 5719 5720 5720 5720 5722 5725 5726 5727 5729 5730 5730 5730 5731 5732 5733 5733 5733 5733 5733 5733 5732 5731 5731 5730 5729 5728 5727 5727 5727 5726 5726 5726
5624 5626 5628 5629 5630 5632 5634 5636 5639 5641 5642 5643 5645 5647 5650 5652 5655 5656 5658 5659 5660 5662 5663 5665 5666 5668 5670 5671 5673 5675 5677 5679 5681 5684 5686 5687 5689 5690 5691 5693 5695 5696 5698 5700 5701 5703 5704 5706 5708 5709 5711 5712 5714 5714 5715 5716 5716 5717 5720 5721 5722 5723 5725 5725 5726 5727 5727 5728 5729 5729 5729 5729 5729 5728 5728 5727 5726 5726 5725 5724 5724 5724 5723 5723 5723 5723
5624 5624 5626 5628 5629 5631 5633 5635 5637 5639 5640 5642 5644 5646 5648 5650 5652 5654 5656 5657 5658 5659 5661 5662 5664 5665 5667 5669 5671 5673 5675 5676 5678 5680 5682 5684 5685 5687 5688 5690 5691 5693 5695 5696 5698 5699 5701 5702 5704 5706 5707 5709 5710 5711 5711 5712 5713 5715 5716 5717 5718 5719 5721 5721 5722 5723 5724 5724 5724 5724 5725 5725 5724 5724 5723 5723 5722 5722 5721 5720 5720 5720 5719 5719 5719 5719
5623 5624 5625 5627 5629 5631 5632 5634 5636 5638 5639 5641 5642 5644 5645 5647 5649 5651 5653 5655 5657 5658 5659 5660 5661 5662 5664 5666 5668 5670 5672 5673 5675 5677 5679 5681 5682 5683 5685 5687 5688 5689 5691 5692 5694 5695 5696 5698 5700 5702 5703 5704 5706 5707 5707 5707 5708 5711 5713 5713 5714 5715 5717 5717 5718 5719 5719 5720 5720 5720 5720 5720 5720 5719 5719 5719 5718 5717 5717 5716 5716 5716 5715 5715 5716 5715